TimePDT,TemperatureF,Dew PointF,Humidity,Sea Level PressureIn,VisibilityMPH,Wind Direction,Wind SpeedMPH,Gust SpeedMPH,PrecipitationIn,Events,Conditions,WindDirDegrees,DateUTC
12:56 AM,79.0,36.0,21,29.94,10.0,West,6.9,-,N/A,,Clear,270,2013-07-10 07:56:00
1:56 AM,82.0,35.1,18,29.93,10.0,WSW,4.6,-,N/A,,Clear,240,2013-07-10 08:56:00
2:56 AM,73.9,35.1,24,29.94,10.0,Calm,Calm,-,N/A,,Clear,0,2013-07-10 09:56:00
3:56 AM,80.1,37.0,21,29.93,10.0,WSW,4.6,-,N/A,,Clear,240,2013-07-10 10:56:00
4:56 AM,80.1,37.9,22,29.92,10.0,WSW,5.8,-,N/A,,Clear,240,2013-07-10 11:56:00
5:56 AM,78.1,37.9,24,29.93,10.0,WNW,3.5,-,N/A,,Clear,290,2013-07-10 12:56:00
6:56 AM,82.0,37.9,21,29.95,10.0,South,4.6,-,N/A,,Clear,180,2013-07-10 13:56:00
7:56 AM,84.0,37.9,19,29.95,10.0,NW,9.2,-,N/A,,Overcast,310,2013-07-10 14:56:00
8:56 AM,90.0,39.9,17,29.95,10.0,West,12.7,-,N/A,,Clear,280,2013-07-10 15:56:00
9:56 AM,96.1,35.1,12,29.92,10.0,WNW,16.1,19.6,N/A,,Clear,290,2013-07-10 16:56:00
10:56 AM,97.0,34.0,11,29.92,10.0,WNW,13.8,-,N/A,,Clear,290,2013-07-10 17:56:00
11:56 AM,98.1,32.0,10,29.91,10.0,West,15.0,-,N/A,,Clear,270,2013-07-10 18:56:00
12:56 PM,100.9,35.1,10,29.89,10.0,WSW,15.0,21.9,N/A,,Clear,250,2013-07-10 19:56:00
1:56 PM,102.0,33.1,9,29.88,10.0,West,11.5,-,N/A,,Clear,280,2013-07-10 20:56:00
2:56 PM,95.0,46.9,19,29.89,10.0,SW,16.1,24.2,N/A,,Clear,230,2013-07-10 21:56:00
3:56 PM,95.0,45.0,18,29.87,10.0,WSW,17.3,23.0,N/A,,Overcast,240,2013-07-10 22:56:00
4:56 PM,90.0,48.9,24,29.86,10.0,WSW,20.7,-,0.00,Rain,Light Rain,250,2013-07-10 23:56:00
5:56 PM,93.0,43.0,18,29.84,10.0,West,12.7,-,0.00,,Partly Cloudy,260,2013-07-11 00:56:00
6:56 PM,89.1,46.9,23,29.85,10.0,SW,17.3,21.9,N/A,,Scattered Clouds,220,2013-07-11 01:56:00
7:56 PM,84.0,48.9,29,29.87,10.0,WSW,18.4,-,N/A,,Mostly Cloudy,240,2013-07-11 02:56:00
8:56 PM,82.9,46.9,28,29.87,10.0,WSW,16.1,-,0.00,,Scattered Clouds,250,2013-07-11 03:56:00
9:56 PM,82.9,48.9,31,29.90,10.0,WSW,16.1,-,0.00,Rain,Light Rain,250,2013-07-11 04:56:00
10:56 PM,82.0,45.0,27,29.85,10.0,WNW,21.9,-,0.00,,Scattered Clouds,300,2013-07-11 05:56:00
11:56 PM,84.0,39.9,21,29.86,10.0,WSW,12.7,-,N/A,,Clear,250,2013-07-11 06:56:00